[[{"header":{"parameterUnit":"m.s-1","parameterCategory":1,"la1":30.2992,"la2":30.254,"lo1":-89.0895,"lo2":-89.0443,"dy":0.0025,"dx":0.0025,"nx":19,"ny":19,"refTime":"2026-03-26T21:00:00:Z","depth":0,"parameterNumber":2,"parameterNumberName":"U-component_of_WINDS"},"data":[0,0,0,3.0082,3.0085,3.0253,3.0253,3.0474,3.0476,0,0,0,0,0,0,0,0,0,0,0,3.0032,3.0034,3.0081,3.0086,3.0253,3.0253,3.0474,3.0476,0,0,0,0,0,0,0,0,0,0,0,3.0032,3.0033,3.0035,3.0086,3.0253,3.0254,3.0473,3.0345,0,0,0,0,0,0,0,0,0,0,3.0182,3.0136,3.0033,3.0035,3.0087,3.0252,3.0254,3.0339,3.0353,3.04,0,3.0438,0,3.0461,3.0491,3.0492,0,0,0,3.0086,3.0124,3.0169,3.0036,3.0089,3.0252,3.0177,3.0347,3.0363,3.0419,3.0441,3.0449,3.0464,3.0492,3.0493,3.0753,3.0754,0,0,3.0077,3.0063,3.0158,3.0179,3.015,3.0172,3.0183,3.0357,3.0382,3.0442,3.0455,3.0468,3.0494,3.0496,3.0752,3.0753,0,0,0,3.005,3.0057,3.0097,3.017,3.0199,3.0177,3.0189,3.0374,3.0388,3.0457,3.047,3.0495,3.0498,3.0751,3.0753,3.0796,0,0,0,3.0044,3.0041,3.0093,3.0087,3.0196,3.0288,3.0202,3.0376,3.0396,3.0469,3.0495,3.05,3.0749,3.0752,3.0792,3.0819,0,0,0,3.0022,3.0038,3.0062,3.0085,3.0157,3.0285,3.031,3.0381,3.0404,3.0492,3.0501,3.0749,3.0751,3.0789,3.0814,3.0884,0,0,0,2.9994,3.01,3.0063,3.0188,3.0155,3.0311,3.0309,3.0426,3.0506,3.0496,3.075,3.0752,3.0788,3.081,3.088,3.0939,3.0963,0,0,3.012,3.0115,3.0189,3.0161,3.0319,3.0286,3.0453,3.0541,3.0563,3.069,3.0696,3.0794,3.0813,3.0883,3.1101,3.1119,0,0,0,3.0225,3.0278,3.0323,3.0398,3.0466,3.0528,3.0591,3.0625,3.0732,3.0624,3.0839,3.0851,3.0893,3.0922,3.0937,3.0974,3.0765,3.0765,3.0765,3.0383,3.0405,3.053,3.0573,3.0646,3.0711,3.0774,3.083,3.0832,3.0883,3.0919,3.1049,3.1082,3.1094,3.1132,3.0954,3.0954,3.0954,3.0954,3.057,3.0649,3.065,3.077,3.0795,3.0898,3.0968,3.0965,3.1067,3.1022,3.106,3.1008,3.1114,3.1148,3.0958,3.0957,3.0957,3.0956,3.0956,3.0676,3.0717,3.0755,3.0867,3.0952,3.0993,3.1091,3.111,3.1129,3.1167,3.1209,3.1208,3.121,3.1186,3.1186,3.1187,3.1187,3.1187,3.1188,3.0769,3.081,3.0889,3.0972,3.1024,3.1095,3.1164,3.1217,3.128,3.1287,3.1288,3.1285,3.112,3.1078,3.1195,3.1193,3.1192,3.1192,3.1191,3.0948,3.0911,3.1032,3.1084,3.1185,3.1269,3.1293,3.1399,3.1446,3.1495,3.1485,3.136,3.1356,3.1344,3.1309,3.1479,3.1479,3.1479,3.1479,3.1036,3.1036,3.1165,3.1247,3.133,3.1365,3.1505,3.1561,3.1615,3.1646,3.1625,3.1581,3.1567,3.1572,3.1555,3.1522,3.1743,3.1743,3.1743,3.1148,3.1157,3.127,3.1319,3.1401,3.1472,3.1604,3.1701,3.1755,3.1754,3.1671,3.166,3.1589,3.1565,3.1559,3.1532,3.1473,0,0]},{"header":{"parameterUnit":"m.s-1","parameterCategory":1,"la1":30.2992,"la2":30.254,"lo1":-89.0895,"lo2":-89.0443,"dy":0.0025,"dx":0.0025,"nx":19,"ny":19,"refTime":"2026-03-26T21:00:00:Z","depth":0,"parameterNumber":3,"parameterNumberName":"V-component_of_WINDS"},"data":[0,0,0,0.7062,0.7069,0.742,0.7422,0.7859,0.7863,0,0,0,0,0,0,0,0,0,0,0,0.695,0.6952,0.7062,0.707,0.742,0.7422,0.7858,0.7863,0,0,0,0,0,0,0,0,0,0,0,0.6948,0.6951,0.6955,0.7072,0.742,0.7422,0.7857,0.7597,0,0,0,0,0,0,0,0,0,0,0.7259,0.7146,0.6951,0.6955,0.7073,0.742,0.7422,0.7585,0.7614,0.7694,0,0.7762,0,0.7819,0.7891,0.7892,0,0,0,0.7078,0.7122,0.7224,0.6955,0.7077,0.7419,0.7264,0.7601,0.7633,0.7732,0.7768,0.7785,0.7826,0.7894,0.7896,0.833,0.8331,0,0,0.7059,0.7009,0.7202,0.7244,0.7187,0.7253,0.7275,0.7621,0.7658,0.777,0.7795,0.7833,0.7896,0.79,0.8328,0.833,0,0,0,0.6998,0.6995,0.7089,0.7226,0.729,0.7263,0.7289,0.7643,0.7677,0.78,0.7838,0.7899,0.7904,0.8327,0.8329,0.8363,0,0,0,0.6986,0.696,0.708,0.7053,0.7283,0.747,0.7302,0.7653,0.7694,0.7836,0.7899,0.7908,0.8325,0.8328,0.8358,0.8389,0,0,0,0.693,0.6953,0.7,0.705,0.7198,0.7466,0.7521,0.7663,0.7717,0.7893,0.7909,0.8324,0.8327,0.8354,0.8382,0.8489,0,0,0,0.6856,0.7028,0.7,0.7206,0.7195,0.7482,0.7519,0.7737,0.7891,0.7901,0.8325,0.8329,0.8353,0.8378,0.8484,0.8571,0.8602,0,0,0.7045,0.7048,0.7174,0.7159,0.7439,0.7433,0.7719,0.791,0.7973,0.8208,0.8219,0.836,0.8381,0.8488,0.8789,0.8812,0,0,0,0.7217,0.7306,0.7391,0.7534,0.768,0.781,0.796,0.803,0.8231,0.8082,0.8428,0.8442,0.8507,0.8551,0.8572,0.8631,0.8346,0.8346,0.8345,0.7415,0.7484,0.7696,0.7806,0.7944,0.8096,0.8215,0.8336,0.8368,0.8447,0.8519,0.8692,0.8742,0.8758,0.8818,0.8568,0.8568,0.8568,0.8569,0.77,0.7838,0.7871,0.8089,0.816,0.8345,0.8497,0.8512,0.8696,0.8645,0.8705,0.8646,0.8782,0.8839,0.8572,0.8571,0.8571,0.8571,0.857,0.7839,0.7917,0.7997,0.8209,0.8365,0.8471,0.8644,0.8704,0.8762,0.8821,0.8903,0.8903,0.8911,0.8855,0.8855,0.8856,0.8857,0.8857,0.8857,0.7953,0.8042,0.818,0.8347,0.8445,0.8583,0.8734,0.8834,0.896,0.899,0.8991,0.9015,0.8781,0.8722,0.8867,0.8865,0.8864,0.8863,0.8863,0.8221,0.8169,0.8381,0.8479,0.868,0.8831,0.8903,0.91,0.919,0.9274,0.9284,0.91,0.911,0.9094,0.9046,0.9267,0.9267,0.9267,0.9267,0.834,0.8348,0.8578,0.8731,0.8888,0.8974,0.9213,0.9331,0.9447,0.9507,0.9483,0.9423,0.9404,0.9426,0.9403,0.9359,0.9654,0.9655,0.9655,0.8509,0.8534,0.8727,0.8835,0.8996,0.9133,0.936,0.9535,0.9655,0.9672,0.9556,0.954,0.9444,0.9409,0.9427,0.939,0.9311,0,0]}]]